timestamp,surface_pressure_avg,surface_temp_avg,battery_voltage,lat,long
2023-10-27 00:09:01+00:00,315.08299999999997,10.47,11.3,47.84626,-54.09684
2023-10-27 00:19:00+00:00,309.863,10.48,11.3,47.84626,-54.09684
2023-10-27 00:29:00+00:00,298.9113,10.49,11.3,47.84626,-54.09684
2023-10-27 00:39:00+00:00,286.7597,10.47,11.3,47.84626,-54.09684
2023-10-27 00:49:00+00:00,275.9448,10.49,11.3,47.84626,-54.09684
2023-10-27 00:59:00+00:00,268.218,10.4,11.3,47.84626,-54.09684
2023-10-27 01:09:00+00:00,258.2781,10.4,11.3,47.84626,-54.09684
2023-10-27 01:19:00+00:00,250.3198,10.4,11.3,47.84626,-54.09684
2023-10-27 01:29:00+00:00,240.9481,10.4,11.3,47.84626,-54.09684
2023-10-27 01:39:00+00:00,231.2381,10.4,11.3,47.84626,-54.09684
2023-10-27 01:49:00+00:00,222.6465,10.38,11.3,47.84626,-54.09684
2023-10-27 01:59:00+00:00,219.2564,10.38,11.3,47.84626,-54.09684
2023-10-27 02:09:00+00:00,215.1965,10.4,11.3,47.84626,-54.09684
2023-10-27 02:19:00+00:00,206.6714,10.43,11.3,47.84626,-54.09684
2023-10-27 02:29:00+00:00,199.5281,10.48,11.3,47.84626,-54.09684
2023-10-27 02:39:00+00:00,200.0264,10.49,11.3,47.84626,-54.09684
2023-10-27 02:49:00+00:00,194.0714,10.49,11.3,47.84626,-54.09684
2023-10-27 02:59:00+00:00,187.1964,10.5,11.3,47.84626,-54.09684
2023-10-27 03:09:00+00:00,189.5365,10.5,11.3,47.84626,-54.09684
2023-10-27 03:19:00+00:00,192.2715,10.5,11.3,47.84626,-54.09684
2023-10-27 03:29:00+00:00,192.9281,10.5,11.3,47.84626,-54.09684
2023-10-27 03:39:00+00:00,192.7881,10.5,11.3,47.84626,-54.09684
2023-10-27 03:49:00+00:00,193.6631,10.5,11.3,47.84626,-54.09684
2023-10-27 03:59:00+00:00,196.5132,10.5,11.3,47.84626,-54.09684
2023-10-27 04:09:00+00:00,194.2715,10.5,11.3,47.84626,-54.09684
2023-10-27 04:19:00+00:00,191.2498,10.5,11.3,47.84626,-54.09684
2023-10-27 04:29:00+00:00,190.8748,10.5,11.3,47.84626,-54.09684
2023-10-27 04:39:00+00:00,194.8915,10.5,11.3,47.84626,-54.09684
2023-10-27 04:49:00+00:00,193.3348,10.5,11.3,47.84626,-54.09684
2023-10-27 04:59:00+00:00,188.8631,10.5,11.3,47.84626,-54.09684
2023-10-27 05:09:00+00:00,199.3181,10.5,11.3,47.84626,-54.09684
2023-10-27 05:19:00+00:00,207.2281,10.5,11.22,47.84626,-54.09684
2023-10-27 05:29:00+00:00,203.1181,10.5,11.22,47.84626,-54.09684
2023-10-27 05:39:00+00:00,202.8131,10.5,11.22,47.84626,-54.09684
2023-10-27 05:49:00+00:00,213.2514,10.5,11.22,47.84626,-54.09684
2023-10-27 05:59:00+00:00,218.1598,10.5,11.22,47.84626,-54.09684
2023-10-27 06:09:00+00:00,217.3748,10.5,11.22,47.84626,-54.09684
2023-10-27 06:19:00+00:00,222.5098,10.53,11.3,47.84626,-54.09684
2023-10-27 06:29:00+00:00,232.3948,10.58,11.3,47.84626,-54.09684
2023-10-27 06:39:00+00:00,238.0547,10.6,11.3,47.84626,-54.09684
2023-10-27 06:49:00+00:00,241.5847,10.59,11.3,47.84626,-54.09684
2023-10-27 06:59:00+00:00,247.7397,10.6,11.3,47.84626,-54.09684
2023-10-27 07:09:00+00:00,257.6831,10.66,11.3,47.84626,-54.09684
2023-10-27 07:19:00+00:00,264.7514,10.62,11.22,47.84626,-54.09684
2023-10-27 07:29:00+00:00,269.1647,10.6,11.22,47.84626,-54.09684
2023-10-27 07:39:00+00:00,279.5414,10.67,11.22,47.84626,-54.09684
2023-10-27 07:49:00+00:00,289.1429,10.68,11.22,47.84626,-54.09684
2023-10-27 07:59:00+00:00,295.6713,10.7,11.22,47.84626,-54.09684
2023-10-27 08:09:00+00:00,306.048,10.7,11.22,47.84626,-54.09684
2023-10-27 08:19:01+00:00,318.663,10.7,11.22,47.84626,-54.09684
2023-10-27 08:29:01+00:00,325.8014,10.76,11.22,47.84626,-54.09684
2023-10-27 08:39:01+00:00,337.0879,10.8,11.22,47.84626,-54.09684
2023-10-27 08:49:01+00:00,346.8246,10.8,11.22,47.84626,-54.09684
2023-10-27 08:59:01+00:00,349.7763,10.8,11.22,47.84626,-54.09684
2023-10-27 09:09:01+00:00,356.1912,10.8,11.22,47.84626,-54.09684
2023-10-27 09:19:00+00:00,361.4412,10.8,11.22,47.84626,-54.09684
2023-10-27 09:29:00+00:00,360.8079,10.8,11.22,47.84626,-54.09684
2023-10-27 09:39:00+00:00,360.8262,10.8,11.22,47.84626,-54.09684
2023-10-27 09:49:00+00:00,363.8762,10.8,11.22,47.84626,-54.09684
2023-10-27 09:59:00+00:00,365.2361,10.83,11.22,47.84626,-54.09684
2023-10-27 10:09:00+00:00,364.4496,10.85,11.22,47.84626,-54.09684
2023-10-27 10:19:00+00:00,372.273,10.85,11.22,47.84626,-54.09684
2023-10-27 10:29:00+00:00,375.6279,10.87,11.22,47.84626,-54.09684
2023-10-27 10:39:00+00:00,370.2861,10.9,11.22,47.84626,-54.09684
2023-10-27 10:49:00+00:00,370.0896,10.9,11.22,47.84626,-54.09684
2023-10-27 10:59:00+00:00,372.4813,10.9,11.22,47.84626,-54.09684
2023-10-27 11:09:00+00:00,364.7962,10.88,11.22,47.84626,-54.09684
2023-10-27 11:19:00+00:00,351.2263,10.8,11.37,47.84626,-54.09684
2023-10-27 11:29:00+00:00,350.31800000000015,10.88,11.37,47.84626,-54.09684
2023-10-27 11:39:00+00:00,352.9763,10.88,11.37,47.84626,-54.09684
2023-10-27 11:49:00+00:00,338.9879,10.83,11.37,47.84626,-54.09684
2023-10-27 11:59:00+00:00,334.5663,10.83,11.37,47.84626,-54.09684
2023-10-27 12:09:00+00:00,340.2713,10.8,11.37,47.84626,-54.09684
2023-10-27 12:19:00+00:00,334.468,10.8,11.7,47.84626,-54.09684
2023-10-27 12:29:00+00:00,317.3463,10.8,11.7,47.84626,-54.09684
2023-10-27 12:39:00+00:00,317.2863,10.8,11.7,47.84626,-54.09684
2023-10-27 12:49:00+00:00,319.1047,10.8,11.7,47.84626,-54.09684
2023-10-27 12:59:00+00:00,297.4797,10.7,11.7,47.84626,-54.09684
2023-10-27 13:09:00+00:00,278.7897,10.7,11.7,47.84626,-54.09684
2023-10-27 13:19:00+00:00,275.3647,10.7,11.7,47.84626,-54.09684
2023-10-27 13:29:00+00:00,270.2914,10.7,11.7,47.84626,-54.09684
2023-10-27 13:39:00+00:00,253.8531,10.6,11.7,47.84626,-54.09684
2023-10-27 13:49:00+00:00,246.6847,10.6,11.7,47.84626,-54.09684
2023-10-27 13:59:00+00:00,248.2297,10.62,11.7,47.84626,-54.09684
2023-10-27 14:09:00+00:00,242.4565,10.6,11.7,47.84626,-54.09684
2023-10-27 14:19:00+00:00,230.5781,10.6,11.46,47.84626,-54.09684
2023-10-27 14:29:00+00:00,223.3831,10.6,11.46,47.84626,-54.09684
2023-10-27 14:39:00+00:00,216.0614,10.6,11.46,47.84626,-54.09684
2023-10-27 14:49:00+00:00,202.8031,10.59,11.46,47.84626,-54.09684
2023-10-27 14:59:00+00:00,193.4398,10.59,11.46,47.84626,-54.09684
2023-10-27 15:09:00+00:00,190.5631,10.6,11.46,47.84626,-54.09684
2023-10-27 15:19:00+00:00,187.0681,10.6,11.7,47.84626,-54.09684
2023-10-27 15:29:00+00:00,182.1915,10.6,11.7,47.84626,-54.09684
2023-10-27 15:39:00+00:00,179.9215,10.6,11.7,47.84626,-54.09684
2023-10-27 15:49:00+00:00,177.7348,10.6,11.7,47.84626,-54.09684
2023-10-27 15:59:00+00:00,177.0881,10.6,11.7,47.84626,-54.09684
2023-10-27 16:09:00+00:00,178.5798,10.6,11.7,47.84626,-54.09684
2023-10-27 16:19:00+00:00,175.3482,10.6,11.53,47.84626,-54.09684
2023-10-27 16:29:00+00:00,174.3699,10.61,11.53,47.84626,-54.09684
2023-10-27 16:39:00+00:00,178.8031,10.64,11.53,47.84626,-54.09684
2023-10-27 16:49:00+00:00,184.9915,10.69,11.53,47.84626,-54.09684
2023-10-27 16:59:00+00:00,183.6082,10.7,11.53,47.84626,-54.09684
2023-10-27 17:09:00+00:00,181.4482,10.7,11.53,47.84626,-54.09684
2023-10-27 17:19:00+00:00,185.1965,10.7,11.46,47.84626,-54.09684
2023-10-27 17:29:00+00:00,186.7798,10.73,11.46,47.84626,-54.09684
2023-10-27 17:39:00+00:00,189.9315,10.76,11.46,47.84626,-54.09684
2023-10-27 17:49:00+00:00,195.0065,10.78,11.46,47.84626,-54.09684
2023-10-27 17:59:00+00:00,198.3715,10.8,11.46,47.84626,-54.09684
2023-10-27 18:09:00+00:00,202.0064,10.8,11.46,47.84626,-54.09684
2023-10-27 18:19:00+00:00,207.5048,10.8,11.46,47.84626,-54.09684
2023-10-27 18:29:00+00:00,215.2681,10.8,11.46,47.84626,-54.09684
2023-10-27 18:39:00+00:00,219.2531,10.8,11.46,47.84626,-54.09684
2023-10-27 18:49:00+00:00,220.2681,10.8,11.46,47.84626,-54.09684
2023-10-27 18:59:00+00:00,227.2298,10.8,11.46,47.84626,-54.09684
2023-10-27 19:09:00+00:00,238.1714,10.8,11.46,47.84626,-54.09684
2023-10-27 19:19:00+00:00,241.798,10.8,11.37,47.84626,-54.09684
2023-10-27 19:29:00+00:00,243.1964,10.8,11.37,47.84626,-54.09684
2023-10-27 19:39:00+00:00,250.4481,10.8,11.37,47.84626,-54.09684
2023-10-27 19:49:00+00:00,260.6098,10.8,11.37,47.84626,-54.09684
2023-10-27 19:59:00+00:00,266.8498,10.8,11.37,47.84626,-54.09684
2023-10-27 20:09:00+00:00,274.7598,10.8,11.37,47.84626,-54.09684
2023-10-27 20:19:01+00:00,290.528,10.8,11.37,47.84626,-54.09684
2023-10-27 20:29:01+00:00,302.098,10.85,11.37,47.84626,-54.09684
2023-10-27 20:39:01+00:00,307.243,10.88,11.37,47.84626,-54.09684
2023-10-27 20:49:01+00:00,317.4246,10.86,11.37,47.84626,-54.09684
2023-10-27 20:59:01+00:00,333.0646,10.88,11.37,47.84626,-54.09684
2023-10-27 21:09:01+00:00,339.7697,10.9,11.37,47.84626,-54.09684
2023-10-27 21:19:00+00:00,340.6796,10.88,11.37,47.84626,-54.09684
2023-10-27 21:29:00+00:00,347.8746,10.87,11.37,47.84626,-54.09684
2023-10-27 21:39:00+00:00,360.403,10.8,11.37,47.84626,-54.09684
2023-10-27 21:49:00+00:00,361.7996,10.9,11.37,47.84626,-54.09684
2023-10-27 21:59:00+00:00,360.728,10.9,11.37,47.84626,-54.09684
2023-10-27 22:09:00+00:00,369.2996,10.9,11.37,47.84626,-54.09684
2023-10-27 22:19:01+00:00,374.1013,10.9,11.37,47.84626,-54.09684
2023-10-27 22:29:01+00:00,371.3979,10.93,11.37,47.84626,-54.09684
2023-10-27 22:39:01+00:00,370.473,10.97,11.37,47.84626,-54.09684
2023-10-27 22:49:01+00:00,373.2362,10.97,11.37,47.84626,-54.09684
2023-10-27 22:59:01+00:00,373.4464,10.96,11.37,47.84626,-54.09684
2023-10-27 23:09:01+00:00,372.4745,10.96,11.37,47.84626,-54.09684
2023-10-27 23:19:01+00:00,371.1379,10.94,11.37,47.84626,-54.09684
2023-10-27 23:29:01+00:00,367.958,10.9,11.37,47.84626,-54.09684
2023-10-27 23:39:01+00:00,363.5714,10.9,11.37,47.84626,-54.09684
2023-10-27 23:49:01+00:00,357.6595,10.9,11.37,47.84626,-54.09684
2023-10-27 23:59:01+00:00,350.8297,10.9,11.37,47.84626,-54.09684
